378P/McNaught (2020)

Japanese version
Home page
Updated on November 3, 2020

---------------------------------------------------------------------

* Profile

Designation 378P/2019 E2
Recovery Date March 10, 2019
Magnitude 21.9 mag
Recoverer E. Schwab (Egelsbach, Germany), D. Abreu (European Space Agency's Optical Ground Station, Tenerife)

* Orbital Elements

Epoch 2020 Nov. 7.0 TT = JDT 2459160.5                                          
T 2020 Oct. 20.88436 TT                                 Rudenko                 
q   3.3808583            (2000.0)            P               Q                  
n   0.06112678     Peri.  194.04878     +0.30501100     +0.89476019             
a   6.3823660      Node    94.51309     -0.83912887     +0.41445174             
e   0.4702814      Incl.   19.09663     -0.45036767     -0.16623467             
P  16.1                                                                         
From 189 observations 2003 May 30-2020 Apr. 5, mean residual 0".6.              

* Magnitudes Graph

        10.0 + 5 log d + 7.5 log r(t - 1000)

---------------------------------------------------------------------

The orbital elements are published on M.P.E.C. 2020-H235.
The magnitudes graphs are made with Comet for Windows.

---------------------------------------------------------------------

Copyright(C) Seiichi Yoshida (comet@aerith.net). All rights reserved.